Flag for Taiwan Weather past 2 weeks in Kaohsiung, Taiwan

72 °F


Feels Like: 69 °F
Forecast: 69 / 84 °F
Wind: 5 mph from Northeast

Location: Kaohsiung International Airport

Current Time: Nov 30, 2015 at 1:50:16 AM

Latest Report: Nov 30, 2015 at 1:00 AM

Visibility: 2 mi

Pressure: 30.07 "Hg

Humidity: 88%

Dew point: 68 °F

Location of KaohsiungLocation

Historic Weather in Kaohsiung — Graph


Kaohsiung temperature yesterday

Maximum temperature yesterday: 86 °F (at 12:30 PM)
Minimum temperature yesterday: 66 °F (at 5:00 AM)
Average temperature yesterday: 76 °F

Past Weeks' High & Low Weather Summary

High88 °F (Nov 17, 10:30 AM)100% (Nov 20, 7:30 PM)30.21 "Hg (Nov 20, 7:30 PM)
Low61 °F (Nov 27, 6:00 AM)40% (Nov 29, 12:00 PM)29.89 "Hg (Nov 23, 3:30 PM)
Average78 °F75%30.02 "Hg
* Reported Midnight between Nov 14 and Nov 15 — Midnight between Nov 29 and Nov 30, Kaohsiung, Weather by CustomWeather, © 2015

Note: Actual official high and low records may vary slightly from our data, if they occured in-between our weather recording intervals... More about our weather records


Kaohsiung weather history for previous 24 hours

Time TempWeatherWind HumidityBarometerVisibility
12:00 AM
Mon, Nov 30
73 °FFog.3 mph83%30.07 "Hg3 mi
11:30 PM
Sun, Nov 29
73 °FFog.5 mph83%30.09 "Hg3 mi
11:00 PM73 °FFog.2 mph83%30.09 "Hg3 mi
10:57 PM73 °FFog.2 mph83%30.09 "Hg3 mi
10:30 PM73 °FPassing clouds.2 mph83%30.09 "Hg4 mi
10:00 PM75 °FPassing clouds.6 mph78%30.09 "Hg4 mi
9:30 PM75 °FPassing clouds.6 mph78%30.09 "Hg4 mi
9:00 PM77 °FPassing clouds.5 mph69%30.09 "Hg5 mi
8:30 PM77 °FPassing clouds.6 mph69%30.09 "Hg6 mi
8:00 PM77 °FPassing clouds.6 mph74%30.09 "Hg5 mi
7:30 PM77 °FPassing clouds.8 mph74%30.09 "Hg5 mi
7:00 PM77 °FPassing clouds.6 mph74%30.07 "Hg5 mi
6:30 PM77 °FPassing clouds.7 mph79%30.07 "Hg4 mi
5:30 PM77 °FPassing clouds.7 mph74%30.07 "Hg5 mi
5:00 PM79 °FScattered clouds.9 mph70%30.07 "HgN/A
4:30 PM81 °FScattered clouds.9 mph66%30.07 "HgN/A
4:00 PM82 °FBroken clouds.10 mph51%30.07 "HgN/A
2:30 PM86 °FPartly sunny.10 mph49%30.04 "HgN/A
1:00 PM84 °FScattered clouds.7 mph51%30.09 "Hg4 mi
12:30 PM86 °FScattered clouds.7 mph43%30.09 "HgN/A
12:00 PM84 °FScattered clouds.7 mph40%30.12 "HgN/A
11:30 AM84 °FScattered clouds.3 mph43%30.12 "HgN/A
11:00 AM81 °FScattered clouds.3 mph45%30.12 "HgN/A
10:30 AM81 °FScattered clouds.7 mph42%30.15 "HgN/A
10:00 AM81 °FScattered clouds.3 mph45%30.15 "HgN/A
9:30 AM79 °FScattered clouds.3 mph54%30.15 "HgN/A
9:00 AM77 °FScattered clouds.2 mph65%30.15 "Hg6 mi
8:30 AM75 °FScattered clouds.5 mph65%30.15 "Hg5 mi
8:00 AM72 °FScattered clouds.7 mph73%30.15 "Hg4 mi
7:30 AM70 °FScattered clouds.5 mph78%30.15 "Hg3 mi
7:00 AM68 °FFog.5 mph83%30.15 "Hg3 mi
6:00 AM68 °FFog.3 mph83%30.15 "Hg3 mi
5:00 AM66 °FFog.3 mph88%30.15 "Hg3 mi
4:00 AM70 °FPassing clouds.3 mph73%30.15 "Hg3 mi
3:00 AM72 °FPassing clouds.6 mph73%30.15 "Hg3 mi
2:00 AM72 °FPassing clouds.6 mph69%30.18 "Hg3 mi
1:00 AM72 °FPassing clouds.3 mph69%30.18 "Hg3 mi
Weather by CustomWeather, © 2015

See weather overviewHow to use our weather pages